Wind_Speed
44 43 42 35 28 31 36 34 20 25 21 23 23 22 23 22 23 21 20 14 13 12
47 35 39 36 31 24 26 28 21 23 19 24 21 24 25 24 22 22 20 19 16 13
48 34 33 28 24 21 20 24 22 20 20 26 25 25 25 23 24 22 16 14 17 16
40 41 34 24 20 18 18 19 19 20 25 26 26 25 24 26 22 17 15 19 16 10
39 33 28 20 21 19 20 19 19 21 24 24 24 25 26 23 19 18 21 18 13 9
30 34 32 25 24 21 22 21 20 22 21 22 23 25 25 22 18 20 19 17 17 8
28 32 31 26 20 19 20 22 23 21 20 21 23 23 22 17 18 17 21 19 10 12
27 25 25 23 20 20 20 19 19 20 20 19 20 20 18 16 15 22 19 10 15 16
26 23 21 20 18 16 16 17 17 16 17 17 17 16 13 13 16 14 13 15 15 16
26 25 22 20 20 19 18 17 17 17 16 16 13 13 14 13 12 11 10 12 14 13
28 28 27 25 24 21 20 18 17 17 16 17 15 13 13 12 10 9 7 6 7 6
28 27 26 26 24 23 21 20 19 17 17 17 15 12 10 9 7 5 6 8 10 13
26 28 27 25 24 22 21 21 20 15 12 12 13 13 11 10 8 6 6 9 12 13
29 30 29 26 24 23 19 18 16 16 17 18 15 12 8 5 1 3 7 11 15 17
Wind_Direction
216 218 219 224 220 210 214 223 233 217 228 233 222 224 225 218 208 208 207 210 227 230
220 218 218 218 224 218 220 221 222 224 236 228 230 226 220 214 214 207 210 217 229 208
219 214 211 208 212 219 225 214 232 234 234 229 226 226 222 223 209 207 211 220 188 191
207 212 213 216 218 217 221 233 232 231 224 221 222 224 221 212 210 207 195 185 195 210
208 205 218 211 212 205 216 220 228 227 216 216 218 220 214 206 193 193 190 189 198 226
211 212 212 198 197 206 207 214 222 214 212 219 218 213 208 202 203 193 208 208 211 267
176 182 183 187 194 201 203 202 198 205 210 207 206 203 197 198 203 208 206 205 240 271
164 158 156 161 171 178 182 186 191 190 188 192 195 196 200 201 203 201 201 232 266 256
150 150 151 151 160 170 174 178 180 183 186 186 188 192 202 194 194 208 223 244 242 270
142 144 144 147 151 153 153 155 158 162 167 171 175 176 181 183 191 201 220 253 280 289
144 141 143 148 147 152 151 154 154 156 161 163 167 172 178 190 202 231 253 278 297 308
145 144 147 147 149 152 149 146 148 152 156 160 160 174 187 197 193 198 207 249 278 301
152 148 148 147 147 149 151 151 154 154 154 158 160 179 178 181 193 222 276 299 309 316
155 151 150 151 153 155 161 157 155 137 143 143 152 150 159 160 190 326 326 327 329 329
Height
791 785 790 795 799 801 805 808 813 815 819 820 823 825 828 830 833 836 839 842 847 850
780 783 784 789 795 796 800 804 808 810 813 818 819 822 824 827 829 833 835 838 841 846
772 777 781 785 785 791 796 800 804 806 809 813 815 818 821 823 827 829 832 835 840 842
765 773 777 780 783 785 792 795 798 801 804 808 811 814 816 820 823 827 831 835 837 840
759 761 772 774 779 780 786 790 793 797 800 804 807 810 813 817 821 825 828 829 836 837
758 765 767 770 774 776 779 784 788 793 796 800 803 806 810 814 819 823 826 830 832 834
751 756 759 765 769 774 778 781 785 789 793 796 800 805 809 813 817 820 823 827 829 831
742 749 754 761 766 772 776 779 783 787 791 795 799 803 807 810 813 817 822 825 826 827
742 749 754 759 765 770 774 778 782 785 789 794 798 802 806 809 814 817 819 821 823 824
741 748 753 760 765 770 774 778 782 786 790 794 799 802 805 808 811 814 816 818 818 819
746 750 756 761 766 772 776 779 782 786 791 794 797 801 803 806 809 811 813 815 815 815
747 752 758 762 766 771 775 779 783 787 790 793 797 800 802 804 806 807 808 809 810 810
750 754 759 764 770 774 777 779 784 787 790 792 794 798 800 802 804 805 806 806 805 805
751 755 760 764 768 772 775 779 783 785 789 792 795 797 799 801 802 803 803 802 801 800